sat.trackr.live / text

‹ back to catalog

UNKNOWN

NORAD 85237

UNKNOWN UNKNOWN UNKNOWN

§ Identity

Operator
Country
Launch date
Launch site
Launch vehicle
Mass (kg)
RCS (m²)

External: N2YO · Heavens-Above

§ Orbital elements

Epoch: 2026-05-13T08:49:18.675264Z

Period
102.66 min
Inclination
65.5306°
Eccentricity
0.0519400
Mean motion
14.02704030 rev/d
Perigee alt
507.2 km
Apogee alt
1,261.7 km
Semi-major
7,262.6 km
B*
5.4141e-4
RAAN
176.2991°
Arg perigee
318.8845°
Mean anomaly
37.4151°
Rev number
62,960

§ Raw data

UNKNOWN1 85237U          26133.36757726  .00002704  00000+0  54141-3 0  99932 85237  65.5306 176.2991 0519400 318.8845  37.4151 14.02704030629608

JSON: /api/v1/satellites/85237 · /tle

For live sub-satellite position, see the globe view (requires WebGL).

§ Visibility from observer

Set your observer location to see the next 7 days of passes ≥ 10°. The values pass through the URL so the page stays shareable.

No JS? Fill the form by hand. The geolocation button needs JavaScript.